Sauk Centre, MN

8:27 PM CST on December 08, 2019 (GMT -0600)
Sauk Centre

Weather History for KD39 - September, 2019

Change the Weather History Date:

Monday, September 2, 2019

  Actual Average (KGHW) Record (KGHW)
Temperature  
Mean Temperature 62 °F -  
Max Temperature 72 °F 76 °F 92 °F (1960)
Min Temperature 52 °F 52 °F 40 °F (1974)
Degree Days  
Heating Degree Days 3    
Growing Degree Days 12 (Base 50)    
Moisture  
Dew Point 56 °F    
Average Humidity 84    
Maximum Humidity 100    
Minimum Humidity 58    
Precipitation  
Precipitation 0.00 in - - ()
Sea Level Pressure  
Sea Level Pressure 30.03 in    
Wind  
Wind Speed 4 mph ()    
Max Wind Speed 18 mph    
Max Gust Speed 43 mph    
Visibility 8.7 miles    
Events Rain , Thunderstorm    
Averages and records for this station are not official NWS values.
T = Trace of Precipitation, MM = Missing Value Source: Averaged Metar Reports

Daily Weather History Graph

Daily Weather History Graph

Search for Another Location

Airport or City:

Astronomy

Sep. 02, 2019 Rise Set
Actual Time 6:41 AM CDT 7:56 PM CDT
Civil Twilight 6:11 AM CDT 8:26 PM CDT
Nautical Twilight 5:34 AM CDT 9:03 PM CDT
Astronomical Twilight 4:54 AM CDT 9:42 PM CDT
Moon 10:35 AM CDT (9/2) 10:06 PM CDT (9/2)
Length of Visible Light 14h 15m
Length of Day
13h 14m
Waxing Crescent, 15% of the Moon is Illuminated
Sep 2
Waxing Crescent
Sep 5
First Quarter
Sep 13
Full
Sep 21
Last Quarter
Sep 28
New

Hourly Weather History & Observations

Time (CDT) Temp. Dew Point Humidity Pressure Visibility Wind Dir Wind Speed Gust Speed Precip Events Conditions
12:15 AM 57.7 °F 57.2 °F 98% 30.09 in 5.0 mi Calm Calm - N/A   Clear
12:16 AM 57.6 °F 57.2 °F 99% 30.09 in 5.0 mi Calm Calm - N/A   Clear
12:35 AM 56.8 °F 56.3 °F 98% 30.10 in 10.0 mi Calm Calm - N/A   Clear
12:36 AM 56.8 °F 56.5 °F 99% 30.10 in 10.0 mi Calm Calm - N/A   Clear
1:19 AM 57.6 °F 57.0 °F 98% 30.10 in 10.0 mi North 4.6 mph - N/A   Clear
1:38 AM 57.6 °F 57.2 °F 99% 30.11 in 10.0 mi NNW 3.5 mph - N/A   Clear
1:55 AM 56.5 °F 55.9 °F 98% 30.11 in 10.0 mi Calm Calm - N/A   Clear
2:15 AM 55.8 °F 55.4 °F 99% 30.11 in 7.0 mi Calm Calm - N/A   Mostly Cloudy
2:16 AM 55.8 °F 55.4 °F 99% 30.11 in 7.0 mi Calm Calm - N/A   Mostly Cloudy
2:35 AM 55.0 °F 54.5 °F 98% 30.11 in 5.0 mi Calm Calm - N/A   Scattered Clouds
2:36 AM 54.9 °F 54.5 °F 99% 30.11 in 5.0 mi Calm Calm - N/A   Scattered Clouds
2:59 AM 55.4 °F 55.0 °F 99% 30.11 in 7.0 mi Calm Calm - N/A   Clear
3:17 AM 54.7 °F 54.5 °F 99% 30.10 in 5.0 mi Calm Calm - N/A   Scattered Clouds
3:35 AM 54.7 °F 54.5 °F 99% 30.11 in 1.0 mi Calm Calm - N/A   Overcast
3:55 AM 54.5 °F 54.0 °F 98% 30.11 in 3.0 mi Calm Calm - N/A   Scattered Clouds
3:56 AM 54.3 °F 53.8 °F 98% 30.11 in 3.0 mi Calm Calm - N/A   Scattered Clouds
4:15 AM 53.6 °F 53.2 °F 99% 30.11 in 2.0 mi Calm Calm - N/A   Clear
4:16 AM 53.6 °F 53.2 °F 99% 30.11 in 2.5 mi Calm Calm - N/A   Clear
4:35 AM 52.7 °F 52.3 °F 99% 30.11 in 10.0 mi Calm Calm - N/A   Mostly Cloudy
4:58 AM 52.7 °F 52.5 °F 99% 30.12 in 1.5 mi Calm Calm - N/A   Overcast
5:16 AM 52.7 °F 52.2 °F 98% 30.13 in 3.0 mi Calm Calm - N/A   Overcast
5:36 AM 52.7 °F 52.3 °F 99% 30.13 in 1.2 mi North 3.5 mph - N/A   Overcast
5:55 AM 53.2 °F 53.1 °F 99% 30.13 in 3.0 mi Calm Calm - N/A   Scattered Clouds
5:56 AM 53.2 °F 53.1 °F 99% 30.13 in 3.0 mi Calm Calm - N/A   Scattered Clouds
6:15 AM 52.3 °F 52.2 °F 99% 30.13 in 2.5 mi NNE 3.5 mph - N/A   Clear
6:38 AM 56.3 °F 56.3 °F 100% 30.13 in 10.0 mi NE 6.9 mph - N/A   Clear
6:56 AM 56.5 °F 56.3 °F 99% 30.13 in 10.0 mi NNE 6.9 mph - N/A   Clear
7:15 AM 56.7 °F 56.3 °F 99% 30.14 in 10.0 mi East 3.5 mph - N/A   Clear
7:16 AM 56.7 °F 56.5 °F 99% 30.14 in 10.0 mi East 3.5 mph - N/A   Clear
7:35 AM 57.2 °F 56.7 °F 98% 30.15 in 10.0 mi Calm Calm - N/A   Clear
7:36 AM 57.2 °F 56.7 °F 98% 30.15 in 10.0 mi Calm Calm - N/A   Clear
7:55 AM 57.4 °F 57.0 °F 99% 30.15 in 10.0 mi Calm Calm - N/A   Clear
8:00 AM 57.2 °F 56.8 °F 99% 30.15 in 10.0 mi Calm Calm - N/A   Scattered Clouds
8:17 AM 58.1 °F 57.4 °F 97% 30.14 in 10.0 mi East 6.9 mph - N/A   Mostly Cloudy
8:35 AM 58.3 °F 57.4 °F 97% 30.14 in 10.0 mi ENE 8.1 mph - N/A   Overcast
8:55 AM 58.5 °F 57.0 °F 95% 30.14 in 10.0 mi East 8.1 mph - N/A   Overcast
9:15 AM 59.5 °F 57.4 °F 93% 30.14 in 10.0 mi ENE 5.8 mph - N/A   Overcast
9:16 AM 59.5 °F 57.6 °F 93% 30.14 in 10.0 mi ENE 5.8 mph - N/A   Overcast
9:39 AM 60.1 °F 57.4 °F 91% 30.14 in 10.0 mi East 8.1 mph - N/A   Overcast
9:56 AM 61.2 °F 56.8 °F 86% 30.14 in 10.0 mi ENE 8.1 mph - N/A   Mostly Cloudy
10:16 AM 62.6 °F 57.4 °F 83% 30.14 in 10.0 mi East 6.9 mph - N/A   Mostly Cloudy
10:35 AM 64.2 °F 56.5 °F 76% 30.13 in 10.0 mi East 9.2 mph - N/A   Scattered Clouds
10:36 AM 64.2 °F 56.1 °F 75% 30.13 in 10.0 mi East 10.4 mph - N/A   Scattered Clouds
10:55 AM 64.8 °F 55.0 °F 71% 30.13 in 10.0 mi ESE 9.2 mph - N/A   Clear
10:59 AM 65.1 °F 56.3 °F 73% 30.13 in 10.0 mi East 8.1 mph - N/A   Clear
11:17 AM 66.0 °F 54.9 °F 67% 30.13 in 10.0 mi East 8.1 mph - N/A   Clear
11:35 AM 66.4 °F 55.2 °F 67% 30.12 in 10.0 mi ESE 9.2 mph - N/A   Clear
11:55 AM 67.5 °F 56.5 °F 68% 30.11 in 10.0 mi ESE 10.4 mph - N/A   Clear
12:15 PM 68.0 °F 56.3 °F 66% 30.11 in 10.0 mi SE 8.1 mph - N/A   Clear
12:16 PM 68.0 °F 56.7 °F 67% 30.11 in 10.0 mi ESE 8.1 mph - N/A   Clear
12:38 PM 68.7 °F 55.9 °F 64% 30.10 in 10.0 mi East 9.2 mph - N/A   Clear
12:55 PM 68.9 °F 55.8 °F 63% 30.09 in 10.0 mi East 9.2 mph - N/A   Clear
1:15 PM 69.8 °F 55.9 °F 61% 30.09 in 10.0 mi ESE 6.9 mph - N/A   Clear
1:16 PM 70.0 °F 56.1 °F 61% 30.09 in 10.0 mi ESE 8.1 mph - N/A   Clear
1:36 PM 70.0 °F 55.6 °F 60% 30.08 in 10.0 mi ENE 10.4 mph - N/A   Clear
1:59 PM 70.9 °F 56.3 °F 60% 30.07 in 10.0 mi East 9.2 mph - N/A   Clear
2:16 PM 70.7 °F 55.6 °F 59% 30.07 in 10.0 mi East 11.5 mph - N/A   Clear
2:36 PM 70.7 °F 55.6 °F 59% 30.05 in 10.0 mi ESE 9.2 mph - N/A   Clear
2:55 PM 71.4 °F 56.1 °F 58% 30.04 in 10.0 mi ESE 12.7 mph - N/A   Clear
2:56 PM 71.4 °F 56.1 °F 58% 30.04 in 10.0 mi ESE 11.5 mph - N/A   Clear
3:15 PM 71.8 °F 57.0 °F 60% 30.02 in 10.0 mi ESE 12.7 mph 17.3 mph N/A   Clear
3:20 PM 70.9 °F 56.5 °F 60% 30.02 in 10.0 mi ESE 11.5 mph 17.3 mph N/A   Scattered Clouds
3:37 PM 70.7 °F 57.4 °F 63% 30.01 in 10.0 mi ESE 10.4 mph 16.1 mph N/A   Scattered Clouds
3:56 PM 71.4 °F 58.1 °F 63% 30.01 in 10.0 mi ESE 10.4 mph - N/A   Scattered Clouds
4:15 PM 72.0 °F 58.3 °F 62% 29.99 in 10.0 mi East 10.4 mph - N/A   Mostly Cloudy
4:16 PM 72.0 °F 58.3 °F 62% 29.99 in 10.0 mi East 11.5 mph - N/A   Mostly Cloudy
4:39 PM 70.5 °F 57.2 °F 63% 29.97 in 10.0 mi ESE 10.4 mph 17.3 mph N/A   Scattered Clouds
4:56 PM 70.7 °F 57.9 °F 64% 29.96 in 10.0 mi ESE 11.5 mph 19.6 mph N/A   Mostly Cloudy
5:15 PM 70.0 °F 57.9 °F 65% 29.96 in 10.0 mi East 11.5 mph - N/A   Mostly Cloudy
5:16 PM 69.8 °F 57.7 °F 65% 29.96 in 10.0 mi ESE 11.5 mph - N/A   Mostly Cloudy
5:35 PM 68.9 °F 57.6 °F 67% 29.94 in 10.0 mi ESE 11.5 mph - N/A   Overcast
5:36 PM 68.9 °F 57.6 °F 67% 29.94 in 10.0 mi ESE 10.4 mph - N/A   Overcast
5:55 PM 68.4 °F 56.3 °F 65% 29.93 in 10.0 mi ESE 15.0 mph 20.7 mph N/A   Overcast
5:59 PM 68.2 °F 56.5 °F 66% 29.93 in 10.0 mi ESE 11.5 mph 20.7 mph N/A   Overcast
6:17 PM 67.5 °F 56.7 °F 68% 29.91 in 10.0 mi ESE 13.8 mph - N/A   Overcast
6:35 PM 67.1 °F 57.2 °F 70% 29.90 in 10.0 mi ESE 13.8 mph - N/A   Overcast
6:55 PM 66.6 °F 58.1 °F 74% 29.89 in 10.0 mi ESE 12.7 mph - N/A   Overcast
6:56 PM 66.6 °F 58.1 °F 74% 29.89 in 10.0 mi ESE 11.5 mph - N/A   Overcast
7:15 PM 66.6 °F 58.5 °F 75% 29.87 in 10.0 mi ESE 10.4 mph - N/A   Overcast
7:39 PM 66.4 °F 59.0 °F 77% 29.85 in 10.0 mi East 11.5 mph - N/A   Overcast
7:56 PM 66.2 °F 59.0 °F 78% 29.84 in 10.0 mi ESE 10.4 mph 16.1 mph N/A   Overcast
8:15 PM 66.2 °F 59.0 °F 78% 29.80 in 10.0 mi ESE 16.1 mph - N/A Thunderstorm Overcast
8:35 PM 66.2 °F 58.8 °F 77% 29.85 in 10.0 mi SE 4.6 mph - N/A Rain , Thunderstorm Light Thunderstorms and Rain
9:00 PM 56.8 °F 56.1 °F 97% 29.89 in 2.0 mi NNE 17.3 mph 42.6 mph N/A Rain , Thunderstorm Light Thunderstorms and Rain
9:18 PM 57.4 °F 56.8 °F 98% 29.82 in 10.0 mi NE 18.4 mph 28.8 mph N/A Thunderstorm Thunderstorm
9:35 PM 57.7 °F 57.2 °F 98% 29.83 in 10.0 mi ENE 10.4 mph 19.6 mph N/A   Scattered Clouds
9:55 PM 58.1 °F 57.2 °F 97% 29.84 in 10.0 mi SSE 9.2 mph - N/A Thunderstorm Mostly Cloudy
9:56 PM 58.1 °F 57.2 °F 97% 29.84 in 10.0 mi SSE 8.1 mph - N/A Thunderstorm Mostly Cloudy
10:15 PM 58.1 °F 57.4 °F 97% 29.84 in 10.0 mi SE 8.1 mph - N/A   Overcast
10:16 PM 58.1 °F 57.4 °F 97% 29.84 in 10.0 mi SSE 10.4 mph - N/A   Overcast
10:38 PM 58.1 °F 57.2 °F 97% 29.83 in 10.0 mi SE 8.1 mph - N/A   Overcast
10:57 PM 58.3 °F 57.2 °F 96% 29.83 in 10.0 mi ESE 8.1 mph - N/A   Overcast
11:16 PM 58.5 °F 57.2 °F 96% 29.82 in 10.0 mi SE 9.2 mph - N/A   Overcast
11:35 PM 59.0 °F 57.2 °F 94% 29.82 in 10.0 mi SE 3.5 mph - N/A   Overcast
11:36 PM 59.0 °F 57.2 °F 94% 29.82 in 10.0 mi SSE 3.5 mph - N/A   Overcast
11:55 PM 59.2 °F 57.4 °F 94% 29.82 in 10.0 mi SE 6.9 mph - N/A   Overcast